Home   Weather   Liestal   Past weeks

Flag for Switzerland Past Weather in Liestal, Basel-Land, Switzerland — Yesterday and Last 2 Weeks

Now
68 °F

Broken clouds.


Feels Like: 68 °F
Forecast: 57 / 66 °F
Wind: 14 mph from West

Location: Bale-Mulhouse

Current Time: Jul 24, 2017 at 3:05:18 pm

Latest Report: Jul 24, 2017 at 2:00 pm


Visibility: N/A

Pressure: 29.89 "Hg

Humidity: 60%

Dew Point: 54 °F

Location of LiestalLocation

Past Weather in Liestal — Graph

°F

Liestal Temperature Yesterday

Maximum temperature yesterday: 73 °F (at 6:30 pm)
Minimum temperature yesterday: 63 °F (at 6:00 am)
Average temperature yesterday: 67 °F

High & Low Weather Summary for the Past Weeks

 TemperatureHumidityPressure
High91 °F (Jul 18, 3:30 pm)100% (Jul 11, 4:30 am)30.30 "Hg (Jul 11, 4:30 am)
Low50 °F (Jul 16, 2:00 am)29% (Jul 19, 12:30 pm)29.83 "Hg (Jul 21, 4:30 pm)
Average70 °F67%30.03 "Hg
* Reported Jul 9 1:00 pm — Jul 24 1:30 pm, Liestal. Weather by CustomWeather, © 2017

Note: Actual official high and low records may vary slightly from our data, if they occured in-between our weather recording intervals... More about our weather records

Advertising

Liestal Weather History for the Previous 24 Hours

Scroll right to see more
 ConditionsComfort  
Time TempWeatherWind HumidityBarometerVisibility
1:30 pm
Mon, Jul 24
68 °FBroken clouds.16 mph60%29.89 "HgN/A
1:00 pm66 °FBroken clouds.14 mph64%29.89 "HgN/A
12:34 pm66 °FBroken clouds.13 mph60%29.89 "HgN/A
12:00 pm66 °FBroken clouds.15 mph64%29.89 "HgN/A
11:30 am64 °FBroken clouds.13 mph73%29.89 "HgN/A
11:00 am64 °FPartly sunny.13 mph78%29.89 "HgN/A
10:30 am63 °FBroken clouds.14 mph83%29.86 "HgN/A
10:00 am63 °FPartly sunny.15 mph83%29.86 "HgN/A
9:30 am61 °FLight rain. Partly sunny.10 mph88%29.83 "HgN/A
9:00 am61 °FLight rain. Broken clouds.3 mph94%29.83 "Hg2 mi
8:30 am61 °FLight rain. Partly sunny.5 mph94%29.83 "HgN/A
8:00 am61 °FLight rain. Partly sunny.7 mph94%29.83 "Hg2 mi
7:30 am63 °FLight rain. Overcast.6 mph88%29.83 "Hg2 mi
6:30 am61 °FLight rain. Overcast.7 mph88%29.86 "Hg4 mi
6:00 am61 °FPartly sunny.6 mph88%29.86 "HgN/A
5:30 am61 °FPassing clouds.6 mph88%29.86 "HgN/A
5:00 am61 °FPartly cloudy.6 mph94%29.86 "HgN/A
4:30 am61 °FRain. Partly cloudy.5 mph88%29.89 "HgN/A
4:00 am61 °FClear.5 mph83%29.89 "Hg10 mi
3:30 am59 °FClear.5 mph94%29.92 "Hg10 mi
3:00 am57 °FClear.3 mph94%29.92 "Hg10 mi
2:30 am57 °FClear.2 mph88%29.92 "Hg10 mi
2:00 am57 °FClear.2 mph88%29.95 "Hg10 mi
1:30 am57 °FClear.2 mph94%29.95 "Hg10 mi
1:00 am59 °FClear.No wind88%29.98 "Hg10 mi
12:30 am59 °FPassing clouds.No wind88%29.98 "HgN/A
12:00 am59 °FPassing clouds.2 mph88%29.98 "HgN/A
11:30 pm
Sun, Jul 23
63 °FPassing clouds.2 mph77%30.01 "HgN/A
11:00 pm63 °FPassing clouds.1 mph77%30.01 "HgN/A
10:30 pm63 °FPartly cloudy.5 mph88%30.01 "HgN/A
10:00 pm64 °FPartly cloudy.2 mph78%30.01 "HgN/A
9:30 pm66 °FPartly cloudy.5 mph68%30.01 "HgN/A
9:00 pm66 °FPartly sunny.3 mph68%30.01 "HgN/A
8:30 pm68 °FBroken clouds.5 mph64%30.01 "HgN/A
8:00 pm68 °FBroken clouds.5 mph60%30.04 "HgN/A
7:30 pm70 °FBroken clouds.7 mph53%30.04 "HgN/A
7:00 pm72 °FPassing clouds.8 mph50%30.04 "HgN/A
6:30 pm73 °FPassing clouds.10 mph44%30.04 "HgN/A
6:00 pm72 °FPassing clouds.10 mph47%30.04 "HgN/A
5:30 pm72 °FPassing clouds.9 mph50%30.04 "HgN/A
5:00 pm72 °FBroken clouds.10 mph47%30.07 "HgN/A
4:30 pm72 °FPartly sunny.13 mph47%30.07 "HgN/A
4:00 pm72 °FScattered clouds.14 mph47%30.07 "HgN/A
3:30 pm72 °FPartly sunny.12 mph50%30.07 "HgN/A
3:00 pm70 °FBroken clouds.9 mph57%30.09 "HgN/A
Weather by CustomWeather, © 2017

See weather overviewHow to use our weather pages